Vertical_Velocity
-4 1 -5 1 -3 -0 -1 3 4 -1 -5 6 14 9 17 3 3 1 -0 2 1 1 0 -1 1 2 2 -2 2 1 3 1 3 -7 -3 -0 -1 3 2 -2 -1 -2 -2
-2 -3 -2 -6 -5 -2 1 2 5 3 21 23 10 13 15 2 3 4 2 2 2 -0 1 0 -0 2 -1 -1 -1 3 2 1 -3 -5 -9 1 -1 4 -1 -3 -0 -3 -5
-4 -3 -7 -4 -4 -8 1 6 13 3 17 19 10 6 2 1 4 6 4 0 2 0 -1 -5 -0 2 1 6 -0 4 4 -3 2 2 -2 -3 1 1 2 -5 -3 1 -1
0 -6 -2 -2 -5 3 -1 14 6 -1 13 16 9 9 12 17 9 17 2 -3 5 4 2 8 -0 -2 2 3 0 13 -1 5 -1 -1 -0 7 2 3 4 -2 -6 1 -0
3 2 -2 1 1 1 3 16 10 8 -4 -6 -6 1 3 9 13 3 5 2 7 1 -2 4 1 0 8 12 -3 5 0 2 -1 -2 6 6 9 14 -3 -4 -4 -5 -3
1 5 3 15 4 -9 8 -7 12 7 2 -13 14 9 4 2 3 3 4 -2 6 9 7 -4 -0 3 13 8 6 4 1 -1 2 5 -5 -4 0 5 3 6 -3 -2 -6
11 -3 1 19 19 1 4 -7 2 -6 3 21 27 9 6 6 -1 1 1 5 5 1 2 1 7 0 5 4 -3 2 4 -2 7 -3 -1 7 -4 -0 8 2 2 6 -1
6 18 22 10 12 6 8 13 17 17 28 11 7 1 3 2 21 7 13 14 8 9 2 6 3 3 10 4 4 -0 3 -3 -2 5 -1 -2 4 4 3 3 -7 -2 -3
14 8 21 4 3 -4 -7 15 7 7 6 -1 -7 8 -3 9 2 -5 1 -0 12 2 8 7 10 5 -6 2 3 -3 -2 9 -2 11 10 3 -0 -5 -0 -3 -1 1 3
12 5 4 7 6 6 -1 -10 -10 -2 2 -7 -5 4 -4 3 -0 -4 4 7 8 1 7 -0 7 1 -3 7 5 5 6 12 6 3 2 -2 -3 -3 0 -1 2 8 -3
-1 8 6 -4 1 -5 -7 -6 3 1 -4 1 -4 -4 -15 -13 -9 -5 -14 -10 -7 -3 5 9 9 10 -3 1 -3 4 4 9 -2 -4 1 0 -1 3 -4 -1 0 -4 -0
-3 2 9 3 -3 -6 -3 -1 -5 7 -1 -2 -7 -7 -12 -2 -1 2 -3 -4 -3 -1 -2 -2 -2 -2 0 2 -1 0 -4 -8 -0 0 -1 0 -1 -5 -3 -2 -4 -2 -5
6 10 7 2 1 2 6 18 13 -10 2 3 -3 -5 5 9 6 -4 1 -1 4 1 4 -2 2 -5 -3 -8 -6 3 5 0 5 -4 5 -4 3 5 -6 -1 7 3 -3
-2 -1 -1 -7 -4 2 -6 -12 -8 -6 -13 3 -6 -4 -0 3 2 7 9 5 1 6 6 1 9 0 4 1 -1 -0 1 -0 4 1 -4 3 5 0 -0 7 -5 1 4
5 11 -1 -2 5 11 -6 -0 2 -8 -4 3 1 -2 -8 -7 -3 2 -2 3 3 5 5 6 4 4 5 5 2 4 2 -0 -0 0 -0 4 -1 3 3 -1 3 6 4
-6 9 20 -3 9 -8 -1 -7 -7 9 -7 4 -11 -4 4 -2 2 -4 -1 2 -5 -1 -5 0 -7 0 1 6 6 10 -3 4 1 5 0 -2 0 -2 -1 2 -3 1 -1
0 -8 -11 2 -3 -5 -1 -13 -3 -7 -2 -5 -7 -5 -10 -3 -4 -3 5 -2 4 4 -2 2 -6 -1 -1 0 -2 -0 0 1 -3 2 11 -1 1 -4 -2 7 1 -4 2
1 3 -1 0 -4 -2 -4 -3 -3 1 2 -0 4 2 -5 -9 -1 -0 3 3 1 2 -1 1 1 -3 -1 -1 0 1 1 -10 32 14 14 10 1 2 5 -4 8 2 -1
5 -1 4 7 10 5 -1 -0 -4 -1 3 2 9 -1 -2 5 8 4 -1 6 1 -4 3 5 2 0 2 -5 1 2 8 -3 -7 8 9 5 5 0 3 -7 0 -1 3
2 -3 -3 -2 -8 -1 0 10 2 1 -1 -0 1 -6 -5 -6 -2 3 -2 -0 -7 2 0 -1 -7 -2 10 -6 -7 -7 0 -2 10 -4 -8 -3 -1 2 2 -2 -1 11 1
0 2 8 13 12 14 13 0 -4 1 -6 -9 -3 2 0 1 -8 -1 -13 -4 1 -7 -3 1 -2 3 3 -1 -0 -0 1 4 8 8 5 -6 1 6 -0 3 8 1 -0
-4 -8 -14 -22 -17 -13 -16 -11 -2 -4 -1 1 2 6 4 4 2 -8 0 -1 1 -9 1 -4 -5 -1 4 10 7 8 12 3 4 8 5 13 1 1 -1 6 1 1 -1
0 -0 -1 -3 -5 -5 -9 -12 -19 -19 -8 -4 -1 -1 -4 -4 -0 1 2 -1 2 -5 -5 -5 -1 3 -0 15 4 3 2 -5 7 9 14 -2 6 -7 6 -0 2 -2 6
-4 -4 -7 -8 -8 -9 -10 -7 -4 -2 -5 -3 0 1 2 -0 -0 1 -2 -1 1 -2 -3 -6 -8 -5 -2 6 12 8 3 4 -8 1 5 2 7 -2 -6 -5 8 -2 -3
-0 -0 2 2 -0 -2 -1 -1 -3 -5 -5 -3 -2 -1 2 0 1 -2 1 2 5 2 -1 0 1 2 6 11 11 8 3 4 10 6 6 -1 -2 4 4 0 -2 -5 1
-3 -3 -5 -2 -4 -3 -2 2 -1 -5 -4 1 -2 -1 1 3 0 -3 9 1 -3 -3 -2 -2 -4 -0 9 5 11 3 1 -5 4 18 4 5 -2 1 2 1 -3 4 2
Height
5652 5663 5672 5682 5688 5696 5705 5710 5712 5721 5733 5737 5743 5750 5754 5757 5765 5771 5778 5783 5788 5792 5796 5799 5801 5804 5807 5809 5811 5814 5814 5816 5816 5819 5818 5820 5820 5822 5824 5822 5824 5823 5820
5645 5656 5665 5675 5683 5692 5699 5703 5705 5715 5727 5729 5736 5741 5746 5751 5757 5762 5768 5774 5778 5783 5786 5790 5793 5795 5797 5801 5803 5805 5807 5806 5808 5808 5809 5811 5812 5814 5815 5815 5814 5814 5812
5643 5653 5662 5671 5680 5688 5695 5697 5702 5712 5718 5719 5730 5735 5740 5746 5750 5753 5758 5763 5767 5772 5776 5779 5782 5785 5788 5792 5793 5795 5796 5795 5797 5799 5801 5800 5803 5805 5806 5805 5804 5805 5804
5641 5651 5661 5671 5675 5682 5687 5689 5696 5700 5708 5718 5726 5731 5737 5740 5739 5745 5748 5753 5758 5762 5767 5771 5773 5774 5778 5780 5782 5784 5784 5786 5787 5790 5791 5793 5794 5796 5797 5796 5795 5796 5796
5639 5650 5659 5670 5675 5679 5681 5686 5693 5697 5706 5713 5721 5724 5728 5732 5736 5737 5740 5745 5747 5751 5756 5760 5763 5766 5770 5772 5773 5775 5776 5778 5779 5781 5781 5785 5785 5785 5785 5785 5785 5786 5787
5641 5652 5661 5668 5672 5672 5677 5681 5685 5693 5702 5709 5711 5715 5719 5724 5728 5731 5733 5737 5741 5743 5747 5750 5754 5759 5760 5762 5763 5766 5768 5768 5770 5771 5773 5775 5775 5777 5776 5775 5774 5775 5776
5648 5654 5660 5667 5669 5671 5676 5679 5683 5692 5699 5701 5703 5709 5714 5720 5722 5726 5728 5732 5736 5738 5739 5743 5747 5750 5751 5754 5756 5757 5758 5759 5762 5763 5764 5765 5763 5767 5767 5766 5765 5767 5767
5650 5657 5661 5663 5666 5670 5674 5677 5681 5689 5691 5692 5698 5704 5710 5716 5721 5725 5726 5729 5731 5733 5735 5736 5739 5742 5745 5747 5746 5745 5748 5751 5752 5754 5752 5752 5754 5755 5755 5756 5755 5756 5759
5656 5659 5659 5663 5667 5671 5676 5676 5679 5682 5686 5690 5694 5701 5706 5710 5712 5717 5717 5720 5724 5724 5725 5728 5732 5734 5734 5734 5734 5734 5736 5739 5740 5744 5745 5745 5746 5747 5747 5748 5749 5750 5751
5655 5658 5660 5663 5666 5671 5673 5676 5678 5681 5685 5688 5695 5699 5703 5705 5708 5709 5710 5712 5715 5717 5717 5718 5722 5723 5724 5723 5724 5724 5726 5729 5730 5732 5733 5734 5736 5737 5738 5739 5739 5741 5743
5658 5659 5662 5665 5668 5673 5675 5678 5679 5681 5684 5687 5690 5692 5695 5699 5700 5703 5704 5705 5707 5708 5710 5710 5711 5712 5713 5714 5716 5716 5718 5719 5720 5721 5723 5725 5728 5730 5730 5730 5729 5730 5731
5660 5662 5663 5667 5670 5673 5675 5678 5680 5681 5683 5686 5689 5692 5693 5693 5695 5695 5696 5696 5696 5698 5700 5701 5702 5702 5704 5704 5705 5707 5708 5709 5711 5712 5713 5715 5717 5718 5720 5721 5722 5723 5723
5660 5662 5665 5668 5672 5675 5677 5677 5676 5679 5680 5682 5685 5686 5687 5685 5684 5685 5686 5685 5685 5686 5686 5687 5689 5690 5691 5692 5693 5694 5696 5697 5699 5700 5701 5702 5703 5705 5707 5707 5710 5710 5711
5669 5669 5670 5673 5673 5672 5674 5674 5676 5678 5680 5679 5679 5679 5679 5678 5677 5677 5676 5674 5673 5673 5672 5671 5671 5673 5675 5676 5678 5680 5681 5682 5683 5686 5686 5688 5691 5692 5693 5695 5697 5698 5697
5665 5666 5669 5668 5671 5671 5671 5674 5677 5677 5676 5674 5673 5670 5669 5667 5665 5664 5662 5662 5660 5659 5659 5660 5658 5658 5659 5660 5662 5664 5666 5666 5669 5669 5670 5673 5674 5677 5679 5680 5681 5684 5684
5665 5663 5668 5667 5664 5674 5673 5672 5671 5669 5669 5667 5665 5662 5658 5655 5651 5649 5647 5645 5644 5643 5641 5641 5641 5645 5644 5644 5646 5647 5650 5651 5653 5653 5655 5656 5658 5661 5664 5666 5669 5671 5671
5663 5665 5663 5664 5670 5668 5665 5664 5658 5660 5659 5656 5652 5647 5644 5640 5634 5632 5627 5625 5623 5621 5621 5620 5623 5624 5626 5628 5629 5632 5635 5636 5635 5637 5639 5641 5642 5647 5649 5650 5653 5657 5659
5661 5662 5660 5661 5659 5656 5655 5653 5651 5648 5642 5637 5629 5625 5623 5619 5615 5610 5605 5602 5600 5601 5600 5600 5602 5604 5607 5608 5610 5612 5617 5622 5621 5619 5621 5625 5627 5630 5633 5638 5639 5641 5644
5660 5660 5657 5655 5652 5649 5646 5640 5633 5626 5619 5611 5604 5597 5591 5586 5583 5578 5575 5573 5572 5570 5570 5574 5576 5579 5584 5586 5589 5592 5597 5601 5606 5605 5605 5610 5610 5615 5618 5622 5625 5629 5631
5655 5651 5646 5642 5638 5635 5631 5626 5621 5613 5603 5595 5582 5572 5560 5554 5551 5546 5543 5543 5541 5542 5542 5546 5548 5552 5558 5563 5566 5571 5576 5581 5587 5589 5592 5596 5597 5601 5605 5610 5613 5614 5618
5642 5637 5636 5635 5631 5627 5619 5612 5601 5592 5584 5571 5555 5541 5531 5524 5519 5515 5512 5512 5511 5512 5515 5517 5521 5526 5532 5535 5540 5546 5553 5559 5565 5570 5575 5579 5583 5587 5591 5595 5599 5600 5605
5635 5632 5631 5628 5621 5611 5605 5598 5588 5575 5557 5539 5525 5515 5507 5500 5493 5487 5487 5485 5484 5484 5487 5488 5493 5498 5505 5510 5515 5522 5529 5537 5544 5551 5557 5560 5564 5573 5578 5581 5584 5589 5592
5634 5630 5626 5619 5612 5604 5596 5585 5572 5556 5538 5518 5500 5487 5481 5474 5471 5468 5464 5460 5458 5459 5460 5462 5467 5473 5480 5487 5492 5501 5510 5518 5526 5534 5541 5543 5548 5554 5564 5568 5571 5577 5580
5630 5624 5617 5609 5599 5589 5578 5565 5550 5533 5515 5498 5484 5471 5460 5452 5447 5445 5444 5442 5438 5434 5434 5437 5443 5449 5455 5462 5468 5478 5488 5500 5509 5518 5525 5529 5533 5542 5549 5554 5559 5562 5567
5623 5616 5609 5601 5591 5579 5565 5549 5532 5514 5497 5480 5466 5453 5441 5432 5427 5425 5424 5424 5422 5416 5413 5415 5417 5422 5429 5442 5449 5457 5467 5479 5493 5501 5508 5514 5521 5527 5534 5540 5544 5549 5554
5615 5607 5599 5590 5579 5566 5550 5534 5514 5496 5478 5464 5450 5436 5424 5416 5411 5410 5412 5411 5408 5404 5402 5401 5401 5402 5408 5418 5430 5441 5450 5463 5478 5488 5495 5502 5509 5514 5520 5526 5532 5537 5541